Location: Maccacari
(45.1333°N, 11.1333°E)
Time: 18:56:26
(UTC+00:00)

USA 234 - Pass Details

Date: 26 January 2021
Orbit: 1100 x 1107 km, 123.0° (Epoch: 01 March)

Event Time Altitude Azimuth Distance (km) Brightness Sun altitude
Exits shadow 19:35:01 40° 347° (NNW) 1,562 4.1 -35.2°
Drops below altitude 10° 19:39:40 10° 313° (NW) 2,966 6.1 -36.0°
Sets 19:42:14 0° 308° (NW) 3,927 6.9 -36.5°
